Regional Weather Roundup
Issued by NWS Tiyan, Guam

Home | Current Version | Previous Version | Text Only | Print | Product List | Glossary On
Versions: 1 2 3 4 5 6 7 8 9 10 11 12 13 14 15 16 17 18 19 20 21 22 23 24 25 26 27 28
000
ASGM40 PGUM 100512
RWRGUM
WEATHER ROUNDUP FOR THE MARIANAS
NATIONAL WEATHER SERVICE TIYAN GU
300 PM CHST SAT DEC 10 2016

GUZ001>004-100600-
MARIANA ISLANDS-

CITY           SKY/WX    TMP DP  RH WIND       PRES   REMARKS
GUAM AIRPORT   MOSUNNY   86  75  70 E16       29.78F HX  95
ANDERSEN AFB   PTSUNNY   84  75  74 E13       29.80S HX  92
ROTA AIRPORT   PTSUNNY   82  73  74 SE15      29.79S
TINIAN AP      MOSUNNY   86  75  70 E13       29.77F HX  95
SAIPAN AP      PTSUNNY   84  75  74 E14       29.78F HX  92

$$





USA.gov is the U.S. government's official web portal to all federal, state and local government web resources and services.